STARLINK-32230, 60366

Orbit data source: Space-Track

STARLINK-32230, 60366 is a payload satellite owned by SpaceX/Seattle (US) in LEO that was launched on Sun, 04 Aug 2024 UTC via an FALCON 9 launch vehicle from the Air Force Western Test Range (AFWTR). Payload-class satellites include a variety of spacecraft equipped with specific instruments for various scientific and technological missions. These include communications satellites like Starlink; space stations such as the ISS; scientific satellites like the Hubble; Earth observation satellites from companies like Planet Labs, Umbra, and HawkEye 360; GPS; miniature CubeSats for education and research; and military/defense satellites.

Loading next visibility...
Identifier
60366, 2024-138M
Orbit
LEO
Country
Flag of USUS
Related business
Manufacturer
SpaceX/Seattle
Mission
Operational Commercial Communications
Bus & Motor
STARLINK V2M, Unknown motor
Mass
730 kg wet, ~700 kg dry
Launch date (UTC)
2024-08-04 (1 year ago)
Launch vehicle
FALCON 9
Launch site
Air Force Western Test Range (AFWTR)
Object type
Payload
Rocket body
Debris
Shape & HBR
Box + 2 Pan, 14.5 m
Radar Cross Section
33.884 m², Large (>1 m²)

Expand to show TLE details & history
Last TLE update: 8 hours ago

TLE from 8 hours ago
0 STARLINK-32230
1 60366U 24138M   25258.57150432 -.00001941  00000-0 -53419-4 0  9991
2 60366  53.1612  43.1950 0000975  88.7074 271.4038 15.30212711 63814
Epoch: 2025-09-15T13:42Z
TLE epoch observation values (Epoch: 2025-09-15T13:42:57.973Z)
Latitude
-0.00005°
Longitude
-157.32083°
Altitude
476.061 km
Speed
7.629 km/s
True Right ascension
02h 52m 46s
True Declination
0° 00' 00"
Sunlit
Object was in full shadow at epoch
Visualization orbit readout
Latitude
Unknown
Longitude
Unknown
Altitude
Unknown
Speed
Unknown
Apparent Right ascension
Unknown
Apparent Declination
Unknown
Sunlit
N/A
Visualization observer readout
Local Sidereal Time
14:01:20
Azimuth
Unknown
Elevation
Unknown
Doppler factor
Unknown
Orbital elements
Apogee altitude
476.102 km
Perigee altitude
474.765 km
Semi-major axis
6,853.57 km
Eccentricity
0.0001
Inclination
53.1612°
RAAN
43.195°
Arg. of periapsis
88.7074°
True anomaly
271.39263°
Mean anomaly
271.4038°
Eccentric anomaly
271.39822°
Mean motion
3.82532 °/min
Orbital period
94.11 mins
BSTAR
-0.000053419
Loading maneuver chart data...
Computing Atmospheric mass density...
Loading historical data...
Loading historical data...
Loading historical data...
Loading historical data...
Loading historical data...
Loading historical data...
Loading historical data...

Documentation

Showing up to 5 results
|